Temperature
13 12 12 13 13 13 13 13 13 13 13 13 13 13 14 14 14 14 14 14 14 14 14 14 14 14 14 14 14 14 13 13 13 13 12 13 13 13 13 13 13 12 12
12 12 12 12 12 13 12 13 13 13 13 13 13 13 13 13 14 14 14 14 14 14 14 14 14 14 14 13 13 13 13 13 13 12 12 12 12 12 12 12 12 12 12
12 12 12 12 12 12 12 12 12 12 12 13 13 13 13 13 13 13 13 13 13 14 14 14 14 14 14 13 13 13 13 13 13 12 12 12 12 12 12 12 12 11 11
12 12 12 12 12 12 12 12 12 12 12 12 12 12 13 13 13 13 13 13 13 13 13 13 13 13 13 13 13 13 13 13 13 12 12 12 12 12 11 11 11 11 11
12 11 11 11 11 11 11 11 12 12 12 12 12 12 12 12 12 12 12 13 13 13 13 13 13 13 13 13 13 13 13 13 13 12 12 12 11 11 11 10 10 10 10
11 11 11 11 11 11 11 11 11 11 11 11 12 12 12 12 12 12 12 12 12 12 12 12 12 12 12 12 12 12 12 12 12 12 12 12 11 11 11 10 10 10 10
10 10 10 10 10 11 11 11 11 11 11 11 11 11 11 12 12 12 12 12 12 12 12 12 12 12 12 12 12 12 12 12 12 12 11 11 11 11 11 10 10 9 9
10 10 10 10 10 10 10 10 10 10 10 11 11 11 11 11 11 11 11 11 11 11 12 12 11 11 11 11 11 11 11 11 11 11 11 11 11 10 10 10 10 9 8
9 9 9 9 9 9 9 9 10 10 10 10 10 11 11 10 10 11 11 11 11 11 11 11 11 11 11 11 11 11 11 11 11 11 11 10 10 10 10 10 9 9 8
9 9 8 9 9 9 9 9 9 9 9 10 10 10 10 10 10 10 10 10 10 10 10 11 10 10 10 10 10 10 10 10 10 10 10 10 10 9 9 9 9 8 8
8 8 8 8 8 8 8 8 9 9 9 9 9 9 9 10 10 10 9 9 10 10 10 10 10 10 10 9 9 9 10 10 10 10 9 9 9 9 9 8 8 8 7
8 8 8 7 8 8 8 8 8 8 8 8 8 9 9 9 9 9 9 9 9 9 9 9 9 9 9 9 9 9 9 9 9 9 9 9 9 8 8 8 8 7 7
7 7 7 7 7 7 7 7 7 7 7 8 8 8 8 8 8 8 8 9 9 9 9 8 8 8 8 8 8 8 8 8 9 9 8 8 8 8 8 7 7 6 6
7 7 6 6 6 6 6 6 6 7 7 7 7 7 7 8 8 8 8 8 8 8 8 8 8 8 8 8 8 8 8 8 8 8 8 8 8 7 7 6 6 6 5
6 6 6 6 5 5 6 6 6 6 6 6 7 7 7 7 7 7 7 7 7 7 7 7 7 7 7 7 7 7 7 7 7 7 7 7 7 7 6 6 5 5 5
6 5 5 5 5 5 5 5 5 5 5 6 6 6 6 6 6 6 6 6 6 6 6 6 6 6 6 6 6 6 7 7 7 6 6 6 6 6 5 5 5 4 4
5 5 5 4 4 4 4 4 5 5 5 5 5 5 5 5 5 5 5 5 5 5 5 6 6 6 6 6 6 6 6 6 6 6 6 5 5 5 5 4 4 4 3
5 4 4 4 4 4 4 4 4 4 4 4 4 5 5 5 5 5 5 5 5 5 5 5 5 5 5 5 5 5 5 5 5 5 5 5 4 4 4 4 3 3 3
4 4 4 3 3 3 3 3 3 4 4 4 4 4 4 4 4 4 4 4 4 4 4 4 4 4 4 4 4 4 4 4 4 4 4 4 4 4 3 3 3 2 2
4 3 3 3 3 3 3 3 3 3 3 3 3 3 3 3 3 4 4 4 3 3 3 3 3 3 3 4 4 4 4 4 4 4 3 3 3 3 3 2 2 2 1
4 3 3 3 3 3 3 2 3 3 3 3 3 3 3 3 3 3 3 3 3 3 3 3 3 3 3 3 3 3 3 3 3 3 3 3 2 2 2 1 1 1 1
3 3 3 2 2 2 2 2 2 2 2 2 2 3 3 3 3 2 2 2 2 2 2 2 2 2 2 2 2 3 3 3 2 2 2 2 2 1 1 1 1 0 -0
3 2 2 2 2 2 2 2 2 2 2 2 2 2 2 2 2 2 2 2 2 2 2 2 2 2 2 2 2 2 2 2 2 2 1 1 1 1 0 -0 -0 -1 -1
2 2 2 2 2 1 1 1 1 2 2 2 2 2 2 2 2 1 1 1 1 1 1 1 1 1 1 1 1 1 1 1 1 1 1 0 0 -0 -0 -1 -1 -1 -1
2 2 1 1 1 1 1 1 1 1 1 1 1 1 1 1 1 1 1 1 0 0 1 1 1 1 1 1 1 1 1 1 1 1 0 -0 -0 -1 -1 -2 -2 -2 -2
1 1 1 1 1 1 1 1 1 1 1 1 1 1 1 1 0 0 1 0 0 0 0 0 0 0 0 0 0 0 0 0 0 -0 -0 -0 -1 -1 -1 -2 -2 -2 -2
Wind_Speed
4 5 4 3 3 4 4 4 3 2 2 3 4 4 4 4 4 4 7 8 8 9 7 5 6 5 5 6 6 4 5 4 3 2 1 2 2 3 3 2 2 3 4
4 5 5 4 3 4 4 4 3 3 2 2 3 3 4 3 4 4 5 8 8 8 6 6 6 6 5 6 6 5 4 4 4 3 2 2 2 2 3 3 3 3 4
5 5 5 4 4 4 3 3 3 3 3 3 2 3 3 2 3 4 4 5 6 7 7 7 6 6 6 6 6 6 6 5 5 5 4 3 4 1 1 3 3 3 3
4 4 5 4 4 3 3 3 4 3 3 3 3 4 4 4 4 4 4 4 5 6 6 6 6 6 6 6 6 6 5 6 5 4 4 3 2 3 2 1 2 3 3
5 5 5 5 4 3 2 1 2 3 3 4 4 4 4 3 3 4 5 5 5 5 5 5 5 6 5 6 6 6 6 6 6 5 3 3 2 2 3 3 3 1 2
6 5 5 5 4 4 2 1 1 2 2 2 2 3 3 3 3 5 6 5 4 4 5 5 5 6 5 6 6 6 7 6 6 5 4 4 3 3 3 3 3 3 2
6 5 5 5 4 4 2 1 0 1 1 2 2 3 3 4 4 5 5 5 4 4 6 5 5 5 6 6 6 6 7 7 7 6 5 4 4 3 3 3 3 2 1
6 6 5 5 4 4 3 2 1 0 0 0 1 2 3 3 3 4 4 5 5 6 6 6 6 6 6 6 6 6 6 5 6 6 6 4 4 3 3 3 3 2 1
6 6 5 5 5 4 4 3 3 2 2 1 1 2 2 3 4 4 4 4 4 4 6 6 7 6 6 6 6 6 6 6 6 6 6 5 4 4 3 3 3 4 4
6 6 5 5 5 4 4 5 5 4 3 2 2 2 3 3 3 2 4 4 4 4 4 5 5 5 5 6 6 5 6 6 6 5 6 5 3 4 3 3 3 3 3
6 5 5 5 5 5 5 5 5 5 5 4 3 3 3 3 3 3 3 3 3 3 4 4 4 5 5 5 6 6 6 7 6 6 6 6 6 5 4 3 3 2 2
5 5 5 5 5 5 5 5 5 5 5 4 4 3 3 3 3 3 3 2 2 2 3 3 4 5 5 5 6 6 6 7 8 7 7 7 5 6 5 4 4 3 3
6 6 6 5 5 5 5 5 4 4 5 5 4 4 4 4 3 3 3 2 1 2 2 3 4 4 4 4 5 5 6 6 7 7 7 7 7 6 4 4 4 3 3
5 6 6 5 5 5 5 5 5 5 5 5 4 4 5 4 3 3 3 2 2 2 2 2 2 3 3 4 4 4 5 5 5 5 6 7 7 7 6 5 5 4 4
5 6 6 6 6 6 6 5 6 6 5 5 4 4 4 4 3 3 2 2 1 1 2 2 2 2 2 3 3 4 4 5 5 5 5 5 6 7 6 5 5 5 4
5 5 5 6 6 6 6 6 6 6 5 5 5 5 5 4 3 3 2 2 1 1 1 1 1 1 1 2 3 4 4 5 6 6 5 6 6 7 7 7 6 6 5
4 4 4 4 5 5 6 7 6 6 5 5 5 5 5 4 4 3 2 2 1 1 1 1 1 1 2 3 4 5 4 5 6 6 6 5 6 7 6 7 6 4 4
4 4 4 4 4 5 6 6 6 6 5 5 5 5 5 5 4 3 3 2 1 1 1 1 1 1 1 4 5 6 4 4 5 5 7 7 7 7 7 6 5 4 3
3 3 3 4 4 5 6 6 6 6 6 6 6 6 6 5 4 4 3 2 1 1 1 1 1 1 2 4 6 6 4 4 4 5 6 7 7 10 10 7 6 5 3
3 3 3 4 4 5 5 6 6 6 6 6 6 6 6 5 4 4 3 2 1 1 1 1 1 2 3 5 6 6 4 5 4 4 5 7 8 10 10 7 7 6 4
3 3 3 3 4 5 5 5 6 6 6 6 6 6 5 5 4 3 2 2 1 1 1 1 1 1 3 5 6 6 4 5 5 4 4 5 10 10 10 8 6 7 6
3 3 3 3 4 4 5 5 5 5 6 6 6 6 5 5 3 3 2 1 1 1 1 1 1 0 1 3 4 5 5 6 5 4 4 6 11 10 10 7 8 10 8
2 3 3 3 3 4 4 5 6 6 6 6 6 6 5 5 4 3 2 2 1 1 2 1 1 1 1 2 5 5 6 7 4 4 7 9 10 9 7 8 10 8 5
2 2 3 3 4 4 4 5 5 5 6 6 6 5 5 5 4 3 2 2 1 1 2 2 2 2 2 2 3 3 3 5 4 4 7 10 9 6 7 7 5 4 4
1 1 2 3 4 4 4 5 5 5 6 6 6 5 5 4 4 3 3 3 2 2 3 3 3 3 4 5 5 4 4 4 5 5 4 4 4 4 4 4 4 4 4
1 1 2 2 3 4 4 5 5 5 5 5 5 4 4 4 3 3 4 5 4 4 4 3 3 2 3 5 7 7 7 8 10 7 5 5 5 5 5 5 5 4 4
Wind_Direction
159 149 143 129 124 121 133 123 128 150 161 174 174 169 179 178 182 187 186 189 191 187 183 186 190 187 192 197 195 194 194 197 175 153 220 244 218 206 188 162 144 134 132
133 142 143 134 136 131 135 144 157 159 163 184 190 174 170 183 186 187 189 194 194 189 186 188 194 192 196 202 203 196 194 194 177 167 172 216 246 234 184 154 153 147 135
137 137 129 121 121 130 139 153 168 166 184 185 188 165 161 166 179 194 201 202 196 194 191 193 197 199 199 206 205 200 195 199 199 187 176 185 205 175 190 185 167 158 151
115 127 129 133 131 136 155 161 174 174 188 194 195 185 190 195 202 199 203 206 197 197 197 197 200 201 202 203 205 202 202 195 202 205 207 201 162 163 182 208 188 169 171
93 95 109 120 117 114 122 160 169 176 189 189 199 196 205 214 207 194 199 209 209 201 198 195 202 204 205 204 202 202 204 206 205 197 187 200 211 195 178 200 198 192 192
78 83 79 83 83 89 91 93 152 187 191 188 202 203 204 211 208 206 207 210 213 210 203 199 207 206 206 205 207 209 206 210 207 199 186 176 177 195 192 200 189 191 186
71 69 71 70 65 68 77 90 140 217 203 192 208 220 221 216 220 221 220 219 218 226 213 211 211 210 208 209 206 207 209 209 203 201 195 191 188 173 176 179 185 172 152
65 62 59 65 58 56 50 33 20 346 204 229 252 245 236 228 228 226 227 223 222 222 213 209 216 217 211 211 209 210 210 205 205 199 188 190 184 175 174 173 166 172 185
54 59 53 55 52 47 34 20 13 10 12 352 323 303 280 251 239 234 232 229 227 224 212 211 216 215 210 208 206 213 208 200 203 194 183 184 180 168 161 153 156 167 193
52 53 53 53 53 44 29 17 15 9 356 345 326 305 290 286 280 263 253 244 231 222 212 218 220 215 211 206 208 212 204 197 200 189 175 174 164 151 144 145 152 160 177
50 45 42 42 50 39 28 20 7 4 355 341 323 319 306 305 304 290 280 263 242 221 214 220 221 219 219 211 209 206 193 191 187 175 169 166 155 154 148 146 152 168 166
48 43 40 35 34 31 21 13 2 358 348 341 336 326 315 313 307 293 288 274 252 244 223 215 220 222 219 216 211 203 194 189 184 175 164 160 154 151 151 155 166 175 168
42 35 32 29 23 19 14 8 2 358 346 343 347 340 330 328 316 309 308 307 291 281 262 226 220 219 213 213 214 204 197 185 175 168 164 161 158 160 156 156 163 161 148
40 32 23 23 17 13 11 7 357 352 346 342 343 337 327 324 319 314 314 312 307 285 270 255 237 222 212 208 207 195 180 165 154 153 154 156 160 159 154 157 158 151 144
35 27 18 15 10 7 4 1 352 346 343 343 341 330 324 329 334 330 319 312 323 311 282 265 251 236 223 201 186 175 160 148 136 128 128 130 133 140 148 155 156 155 157
28 21 13 10 5 358 354 352 346 341 340 342 335 332 333 331 331 334 332 319 321 321 315 281 242 232 228 166 160 152 143 143 143 139 128 124 126 132 136 139 144 151 159
22 11 3 1 358 349 346 344 340 341 344 340 335 335 334 328 325 327 331 328 320 298 296 307 269 222 159 153 159 146 143 145 149 149 145 143 147 140 136 138 129 118 128
13 6 0 353 352 352 346 341 342 346 341 338 337 337 335 327 327 330 325 319 310 298 274 273 258 181 173 164 162 150 138 139 149 153 154 151 150 152 147 141 132 123 108
19 4 358 350 350 351 345 342 343 347 347 345 344 337 330 322 320 316 311 309 306 303 278 223 209 193 189 174 165 149 133 137 142 142 146 150 150 160 156 143 138 130 122
23 9 359 360 358 351 350 348 344 347 347 344 337 330 326 324 320 314 311 313 305 286 290 284 233 199 192 180 172 159 148 150 147 142 147 158 161 166 163 152 151 157 162
21 15 12 6 355 350 353 348 344 345 340 335 332 333 333 330 326 323 318 317 313 301 258 260 261 207 187 186 186 183 164 164 159 160 162 169 172 171 171 165 162 171 160
18 15 10 358 353 354 352 344 344 342 340 337 335 336 339 338 335 330 318 304 279 256 252 232 254 215 174 186 194 193 181 168 162 167 165 167 170 173 172 167 168 165 154
15 14 5 350 348 357 358 346 341 343 342 340 338 338 343 340 337 332 324 316 295 258 255 235 238 226 187 187 204 202 188 174 163 162 166 167 169 170 168 172 172 162 148
9 7 358 349 347 358 358 345 338 343 342 335 334 336 337 338 341 337 327 306 278 254 247 242 236 228 216 199 198 195 181 169 159 154 166 169 168 161 167 170 165 152 160
355 4 349 338 342 351 351 348 345 346 341 335 337 339 338 338 337 335 330 319 296 277 267 249 226 217 225 220 210 193 179 168 166 150 143 153 155 162 164 160 159 164 167
338 335 340 343 340 344 345 350 352 351 341 335 336 336 334 334 335 336 340 351 334 326 314 294 278 253 242 224 214 206 193 184 175 161 164 175 179 181 181 179 180 182 183
Height
1459 1460 1462 1465 1468 1469 1471 1473 1476 1479 1482 1484 1487 1490 1493 1497 1499 1503 1506 1509 1511 1513 1516 1518 1520 1522 1524 1526 1527 1529 1531 1532 1534 1535 1536 1536 1537 1538 1538 1538 1538 1538 1538
1457 1460 1461 1464 1466 1467 1469 1472 1475 1477 1479 1482 1485 1488 1490 1493 1496 1499 1502 1505 1507 1509 1511 1514 1516 1517 1519 1521 1523 1525 1526 1527 1529 1530 1531 1532 1533 1533 1534 1534 1534 1535 1534
1456 1459 1460 1462 1464 1466 1468 1469 1473 1475 1478 1480 1482 1485 1487 1489 1493 1495 1497 1500 1503 1505 1507 1509 1511 1513 1514 1516 1518 1519 1521 1522 1523 1525 1526 1526 1526 1528 1529 1529 1530 1531 1531
1456 1458 1459 1461 1463 1464 1466 1468 1471 1473 1475 1478 1479 1481 1483 1485 1487 1490 1493 1496 1498 1500 1502 1504 1506 1508 1509 1511 1512 1514 1515 1516 1517 1518 1520 1521 1522 1523 1524 1525 1526 1527 1527
1456 1457 1459 1460 1462 1463 1465 1467 1469 1471 1472 1474 1476 1478 1479 1481 1483 1486 1489 1491 1493 1495 1497 1498 1500 1502 1503 1505 1506 1507 1509 1510 1511 1512 1513 1515 1517 1518 1519 1519 1521 1522 1522
1457 1458 1459 1460 1462 1463 1464 1466 1467 1469 1470 1471 1473 1474 1476 1478 1480 1481 1483 1485 1487 1489 1491 1492 1494 1496 1497 1499 1500 1501 1502 1504 1505 1506 1507 1508 1510 1512 1513 1514 1515 1517 1518
1458 1459 1459 1461 1462 1463 1464 1465 1466 1467 1468 1469 1470 1472 1473 1474 1475 1477 1478 1480 1481 1483 1485 1487 1488 1489 1491 1492 1494 1495 1496 1498 1499 1500 1501 1502 1504 1506 1508 1510 1511 1512 1512
1460 1461 1461 1461 1462 1463 1464 1464 1465 1465 1466 1467 1467 1469 1470 1471 1472 1472 1474 1475 1476 1477 1479 1480 1481 1483 1484 1486 1487 1488 1490 1491 1493 1493 1495 1497 1499 1500 1502 1504 1505 1506 1507
1462 1462 1462 1462 1463 1463 1463 1463 1463 1463 1463 1464 1464 1466 1467 1467 1468 1468 1469 1470 1471 1472 1473 1474 1475 1476 1478 1479 1480 1481 1483 1485 1486 1487 1489 1491 1492 1494 1496 1498 1500 1502 1501
1464 1464 1463 1463 1463 1463 1463 1462 1462 1462 1461 1462 1462 1463 1463 1464 1464 1464 1465 1466 1466 1467 1467 1468 1469 1470 1471 1473 1474 1475 1477 1478 1480 1481 1482 1485 1487 1488 1490 1492 1494 1496 1497
1465 1465 1464 1464 1463 1463 1462 1461 1461 1460 1460 1460 1460 1460 1460 1460 1461 1461 1461 1461 1461 1462 1462 1463 1464 1465 1465 1466 1468 1469 1470 1472 1473 1475 1477 1479 1481 1482 1484 1487 1489 1490 1492
1466 1466 1465 1464 1463 1462 1462 1461 1460 1460 1459 1459 1458 1458 1458 1458 1458 1457 1457 1457 1457 1457 1457 1458 1459 1460 1460 1461 1462 1463 1464 1465 1467 1469 1471 1473 1475 1476 1479 1481 1483 1485 1486
1466 1466 1465 1463 1463 1462 1461 1460 1460 1459 1458 1457 1456 1456 1455 1455 1454 1454 1453 1453 1453 1453 1453 1454 1454 1455 1455 1456 1457 1458 1459 1460 1462 1464 1466 1468 1470 1472 1474 1476 1478 1480 1481
1467 1466 1464 1463 1462 1461 1461 1459 1458 1457 1456 1455 1454 1453 1453 1453 1452 1451 1450 1450 1449 1449 1449 1450 1450 1450 1451 1451 1452 1453 1454 1455 1457 1459 1461 1463 1466 1468 1470 1472 1473 1475 1476
1466 1465 1464 1463 1461 1460 1459 1458 1456 1455 1454 1452 1452 1451 1450 1449 1448 1448 1447 1447 1446 1446 1446 1446 1446 1446 1447 1447 1448 1449 1450 1451 1453 1455 1457 1459 1461 1463 1465 1468 1469 1471 1472
1466 1465 1464 1462 1461 1459 1458 1456 1455 1453 1452 1451 1449 1448 1447 1446 1445 1444 1444 1443 1442 1442 1442 1442 1442 1442 1442 1443 1444 1445 1446 1447 1449 1451 1453 1455 1458 1459 1461 1464 1465 1467 1469
1465 1465 1463 1462 1460 1459 1457 1455 1453 1452 1450 1449 1447 1446 1444 1443 1442 1441 1440 1439 1439 1439 1438 1438 1438 1438 1439 1439 1440 1441 1443 1443 1445 1448 1449 1452 1454 1456 1458 1460 1462 1463 1465
1464 1463 1462 1460 1459 1458 1456 1454 1452 1451 1449 1447 1445 1444 1442 1440 1439 1438 1437 1436 1436 1435 1435 1434 1435 1435 1435 1436 1437 1438 1439 1440 1442 1445 1446 1449 1450 1453 1454 1456 1458 1460 1461
1463 1462 1460 1459 1457 1456 1454 1452 1451 1449 1447 1446 1444 1442 1440 1438 1436 1435 1434 1434 1433 1433 1432 1432 1432 1432 1433 1434 1434 1436 1436 1438 1439 1441 1444 1446 1447 1449 1451 1453 1454 1456 1458
1461 1460 1459 1457 1456 1454 1453 1451 1449 1447 1446 1444 1442 1440 1438 1436 1434 1433 1432 1431 1431 1430 1429 1429 1429 1430 1430 1431 1432 1433 1434 1435 1437 1439 1440 1443 1444 1446 1448 1450 1451 1453 1454
1459 1458 1457 1456 1454 1453 1451 1449 1447 1445 1443 1441 1439 1437 1435 1434 1432 1430 1429 1428 1428 1427 1427 1427 1427 1427 1428 1428 1429 1430 1431 1433 1434 1436 1437 1439 1441 1443 1445 1446 1448 1450 1451
1457 1456 1455 1454 1452 1451 1449 1447 1445 1444 1442 1440 1437 1435 1433 1432 1430 1428 1427 1426 1425 1425 1424 1424 1424 1424 1425 1426 1427 1428 1429 1430 1432 1433 1435 1436 1438 1440 1442 1443 1445 1447 1448
1456 1455 1453 1452 1451 1449 1448 1446 1444 1442 1440 1438 1435 1433 1432 1430 1428 1426 1425 1424 1423 1422 1422 1422 1422 1422 1423 1424 1425 1425 1426 1427 1429 1430 1432 1434 1435 1437 1439 1441 1442 1444 1445
1454 1453 1452 1450 1449 1448 1446 1444 1442 1440 1438 1436 1434 1432 1430 1428 1426 1425 1423 1422 1421 1420 1420 1420 1420 1420 1420 1421 1422 1422 1423 1425 1426 1428 1430 1431 1433 1434 1436 1438 1439 1441 1443
1451 1451 1449 1448 1447 1446 1444 1442 1440 1438 1436 1434 1432 1430 1429 1427 1425 1423 1422 1420 1419 1419 1418 1417 1417 1418 1418 1419 1419 1420 1421 1422 1424 1425 1427 1428 1430 1431 1433 1435 1436 1438 1440
1449 1448 1447 1446 1445 1444 1442 1440 1439 1437 1435 1433 1431 1429 1427 1425 1423 1422 1420 1419 1418 1417 1416 1416 1416 1415 1416 1416 1417 1418 1419 1420 1421 1423 1424 1425 1427 1428 1430 1432 1433 1435 1437